M I D A S
Marine Information and Data Acquisition System
Tripno 2031 of the Zeeleeuw from 2011-01-14 07:38:52 to 2011-01-14 15:06:52
Back to CruiseResearch ActivitiesStationsMapUnderway DataData graphs

EquipmentUnitsComments
TimeDGPSUTC
LatitudeDGPSDM.mWGS84
LongitudeDGPSDM.mWGS84
SpeedMeteo Stationm/sRelative wind speed
DirectionMeteo StationdegRelative wind direction
TemperatureMeteo Stationdeg CelciusAir temperature
PressureMeteo StationPaAtmospheric pressure
HumidityMeteo Station%Relative humidity
Missing or incorrect values are displayed as -999
Metereological data collected by the RV Zeeleeuw from 2011-01-14 07:43:22 to 2011-01-14 15:16:46
                                                                                    Next 1000 lines
Time Latitude Longitude Speed Direction Temperature Pressure Humidity
2011-01-14 07:43:32 51°13.661 2°55.956 3 35 10.5 101100 55
2011-01-14 07:43:37 51°13.662 2°55.953 2.5 29 10.5 101100 54
2011-01-14 07:43:42 51°13.663 2°55.949 3.3 22 10.5 101100 54
2011-01-14 07:43:47 51°13.665 2°55.944 3.6 22 10.5 101100 56
2011-01-14 07:43:53 51°13.667 2°55.937 2 28 10.5 101100 56
2011-01-14 07:43:58 51°13.669 2°55.93 6.7 32 10.5 101100 53
2011-01-14 07:44:04 51°13.671 2°55.921 5.6 33 10.5 101100 53
2011-01-14 07:44:09 51°13.674 2°55.913 4.7 39 10.5 101100 56
2011-01-14 07:44:16 51°13.677 2°55.9 3.3 42 10.5 101100 56
2011-01-14 07:44:21 51°13.679 2°55.891 7.3 38 10.5 101100 53
2011-01-14 07:44:26 51°13.681 2°55.881 8.6 57 10.5 101100 53
2011-01-14 07:44:31 51°13.683 2°55.872 7.3 26 10.5 101100 53
2011-01-14 07:44:36 51°13.685 2°55.863 6.4 43 10.5 101100 53
2011-01-14 07:44:41 51°13.686 2°55.854 7.9 41 10.5 101100 53
2011-01-14 07:44:46 51°13.688 2°55.846 7.9 39 10.5 101100 53
2011-01-14 07:44:51 51°13.689 2°55.837 6.8 41 10.5 101100 55
2011-01-14 07:44:56 51°13.691 2°55.829 6.9 36 10.5 101100 55
2011-01-14 07:45:01 51°13.692 2°55.822 10.2 41 10.5 101100 53
2011-01-14 07:45:05 51°13.693 2°55.816 7.2 37 10.5 101100 53
2011-01-14 07:45:11 51°13.695 2°55.807 7.9 33 10.5 101090 55
2011-01-14 07:45:16 51°13.695 2°55.8 5.8 36 10.5 101090 55
2011-01-14 07:45:21 51°13.696 2°55.793 5.3 40 10.5 101090 54
2011-01-14 07:45:25 51°13.697 2°55.788 10.7 36 10.5 101090 54
2011-01-14 07:45:30 51°13.698 2°55.782 8.1 39 10.5 101100 54
2011-01-14 07:45:35 51°13.698 2°55.778 6.2 43 10.5 101100 54
2011-01-14 07:45:40 51°13.699 2°55.775 7.4 43 10.6 101100 55
2011-01-14 07:45:45 51°13.699 2°55.773 4.3 33 10.6 101100 55
2011-01-14 07:45:50 51°13.7 2°55.771 5 27 10.6 101100 54
2011-01-14 07:45:55 51°13.701 2°55.77 7.6 36 10.6 101100 54
2011-01-14 07:46:00 51°13.701 2°55.769 5.5 37 10.5 101100 55
2011-01-14 07:46:05 51°13.702 2°55.768 4.5 32 10.5 101100 55
2011-01-14 07:46:09 51°13.702 2°55.767 5.6 25 10.6 101100 53
2011-01-14 07:46:14 51°13.703 2°55.766 3.1 56 10.6 101100 53
2011-01-14 07:46:19 51°13.703 2°55.765 5.7 39 10.6 101100 55
2011-01-14 07:46:24 51°13.704 2°55.763 4.5 52 10.6 101100 55
2011-01-14 07:46:29 51°13.703 2°55.761 5.4 43 10.6 101100 55
2011-01-14 07:46:33 51°13.703 2°55.759 4.3 53 10.6 101100 55
2011-01-14 07:46:38 51°13.702 2°55.756 5.8 20 10.6 101110 55
2011-01-14 07:46:43 51°13.701 2°55.753 6.1 51 10.6 101110 55
2011-01-14 07:46:48 51°13.7 2°55.75 4.5 25 10.6 101100 55
2011-01-14 07:46:53 51°13.699 2°55.748 3.6 53 10.6 101100 55
2011-01-14 07:46:59 51°13.698 2°55.745 6.9 20 10.6 101120 55
2011-01-14 07:47:05 51°13.699 2°55.744 4 52 10.6 101120 55
2011-01-14 07:47:10 51°13.699 2°55.743 1.9 23 10.6 101110 55
2011-01-14 07:47:16 51°13.7 2°55.743 3.9 49 10.6 101110 55
2011-01-14 07:47:21 51°13.702 2°55.742 3 44 10.6 101100 54
2011-01-14 07:47:26 51°13.703 2°55.742 0.3 22 10.6 101100 54
2011-01-14 07:47:30 51°13.705 2°55.742 0.7 29 10.6 101100 56
2011-01-14 07:47:35 51°13.707 2°55.742 0.2 59 10.6 101100 56
2011-01-14 07:47:40 51°13.709 2°55.741 1 316 10.6 101110 53
2011-01-14 07:47:45 51°13.712 2°55.74 0.1 10 10.6 101110 53
2011-01-14 07:47:50 51°13.715 2°55.738 0.1 21 10.6 101110 54
2011-01-14 07:47:55 51°13.718 2°55.737 -999 329 10.6 101110 54
2011-01-14 07:48:00 51°13.721 2°55.734 -999 335 10.6 101110 54
2011-01-14 07:48:05 51°13.725 2°55.732 -999 306 10.6 101110 54
2011-01-14 07:48:09 51°13.728 2°55.729 -999 255 10.6 101110 54
2011-01-14 07:48:14 51°13.733 2°55.725 -999 57 10.6 101110 54
2011-01-14 07:48:19 51°13.738 2°55.721 -999 24 10.6 101110 54
2011-01-14 07:48:24 51°13.743 2°55.716 -999 307 10.6 101110 54
2011-01-14 07:48:29 51°13.749 2°55.711 -999 333 10.6 101110 54
2011-01-14 07:48:33 51°13.754 2°55.707 -999 306 10.6 101110 54
2011-01-14 07:48:38 51°13.759 2°55.7 9.8 252 10.6 101110 55
2011-01-14 07:48:43 51°13.767 2°55.693 6.9 305 10.6 101110 55
2011-01-14 07:48:48 51°13.774 2°55.686 6.3 246 10.6 101110 54
2011-01-14 07:48:52 51°13.78 2°55.679 5.1 310 10.6 101110 54
2011-01-14 07:48:58 51°13.789 2°55.667 5.3 21 10.6 101120 55
2011-01-14 07:49:03 51°13.797 2°55.659 6.4 304 10.6 101120 55
2011-01-14 07:49:08 51°13.806 2°55.652 4.8 23 10.6 101120 56
2011-01-14 07:49:13 51°13.815 2°55.644 5.5 305 10.6 101120 56
2011-01-14 07:49:17 51°13.823 2°55.637 6 253 10.6 101120 55
2011-01-14 07:49:23 51°13.835 2°55.628 5 306 10.6 101120 55
2011-01-14 07:49:28 51°13.845 2°55.619 5.9 27 10.6 101120 53
2011-01-14 07:49:33 51°13.856 2°55.611 2.9 302 10.6 101120 53
2011-01-14 07:49:37 51°13.864 2°55.605 4.4 247 10.7 101130 55
2011-01-14 07:49:42 51°13.875 2°55.596 2.8 302 10.7 101130 55
2011-01-14 07:49:48 51°13.89 2°55.586 5 316 10.6 101120 54
2011-01-14 07:49:53 51°13.902 2°55.578 6.1 310 10.6 101120 54
2011-01-14 07:49:59 51°13.916 2°55.568 5 27 10.7 101140 54
2011-01-14 07:50:05 51°13.931 2°55.558 5.4 307 10.7 101140 54
2011-01-14 07:50:11 51°13.946 2°55.55 2.5 23 10.7 101130 54
2011-01-14 07:50:16 51°13.959 2°55.542 1.2 304 10.7 101130 54
2011-01-14 07:50:21 51°13.971 2°55.533 4.3 248 10.7 101120 55
2011-01-14 07:50:25 51°13.982 2°55.524 6 302 10.7 101120 55
2011-01-14 07:50:30 51°13.995 2°55.515 5.1 21 10.7 101140 53
2011-01-14 07:50:36 51°14.01 2°55.505 4.9 308 10.7 101140 53
2011-01-14 07:50:41 51°14.023 2°55.497 5.5 318 10.7 101130 56
2011-01-14 07:50:45 51°14.033 2°55.49 6.6 303 10.7 101130 56
2011-01-14 07:50:50 51°14.046 2°55.481 7.2 27 10.7 101140 53
2011-01-14 07:50:55 51°14.059 2°55.473 3.1 307 10.7 101140 53
2011-01-14 07:51:00 51°14.071 2°55.464 5 257 10.7 101130 55
2011-01-14 07:51:05 51°14.085 2°55.455 7.1 302 10.7 101130 55
2011-01-14 07:51:10 51°14.097 2°55.445 5.8 250 10.7 101120 55
2011-01-14 07:51:15 51°14.111 2°55.435 5.3 301 10.7 101120 55
2011-01-14 07:51:20 51°14.124 2°55.425 4.5 27 10.7 101130 53
2011-01-14 07:51:25 51°14.137 2°55.415 4 310 10.7 101130 53
2011-01-14 07:51:30 51°14.151 2°55.405 3.7 21 10.7 101130 54
2011-01-14 07:51:35 51°14.164 2°55.395 0.4 304 10.7 101130 54
2011-01-14 07:51:41 51°14.18 2°55.381 5.5 318 10.7 101160 55
2011-01-14 07:51:46 51°14.193 2°55.369 4.2 303 10.7 101160 55
2011-01-14 07:51:51 51°14.206 2°55.357 6 27 10.7 101130 53
2011-01-14 07:51:56 51°14.218 2°55.344 6.1 306 10.7 101130 53
2011-01-14 07:52:00 51°14.229 2°55.334 6.9 25 10.7 101120 53
2011-01-14 07:52:05 51°14.241 2°55.32 10.1 307 10.7 101120 53
2011-01-14 07:52:10 51°14.253 2°55.307 8.1 25 10.7 101130 54
2011-01-14 07:52:16 51°14.268 2°55.29 10.4 308 10.7 101130 54
2011-01-14 07:52:21 51°14.281 2°55.276 8.6 25 10.7 101120 54
2011-01-14 07:52:25 51°14.291 2°55.266 10.4 305 10.7 101120 54
2011-01-14 07:52:30 51°14.303 2°55.251 10.6 249 10.7 101150 54
2011-01-14 07:52:36 51°14.318 2°55.235 10.7 305 10.7 101150 54
2011-01-14 07:52:40 51°14.328 2°55.224 9.6 19 10.7 101130 55
2011-01-14 07:52:46 51°14.344 2°55.207 4.3 301 10.7 101130 55
2011-01-14 07:52:50 51°14.354 2°55.196 11.5 249 10.8 101130 55
2011-01-14 07:52:55 51°14.367 2°55.184 9.5 307 10.8 101130 55
2011-01-14 07:53:00 51°14.381 2°55.172 9.2 253 10.7 101140 55
2011-01-14 07:53:05 51°14.395 2°55.16 10.1 307 10.7 101140 55
2011-01-14 07:53:10 51°14.409 2°55.148 12.6 19 10.7 101130 53
2011-01-14 07:53:15 51°14.423 2°55.137 11.5 307 10.7 101130 53
2011-01-14 07:53:21 51°14.44 2°55.124 11.5 252 10.7 101130 55
2011-01-14 07:53:26 51°14.454 2°55.112 12.7 308 10.7 101130 55
2011-01-14 07:53:31 51°14.468 2°55.1 11.7 250 10.7 101130 54
2011-01-14 07:53:35 51°14.48 2°55.09 8.9 307 10.7 101130 54
2011-01-14 07:53:40 51°14.495 2°55.079 9.3 250 10.7 101120 55
2011-01-14 07:53:45 51°14.509 2°55.067 9.5 307 10.7 101120 55
2011-01-14 07:53:50 51°14.525 2°55.056 10.7 250 10.7 101130 53
2011-01-14 07:53:55 51°14.54 2°55.045 11 308 10.7 101130 53
2011-01-14 07:53:59 51°14.553 2°55.037 9.9 251 10.7 101120 54
2011-01-14 07:54:04 51°14.569 2°55.027 11.3 301 10.7 101120 54
2011-01-14 07:54:09 51°14.586 2°55.019 10 249 10.7 101120 53
2011-01-14 07:54:14 51°14.603 2°55.011 12.2 304 10.7 101120 53
2011-01-14 07:54:19 51°14.62 2°55.003 12.1 251 10.6 101120 53
2011-01-14 07:54:24 51°14.637 2°54.994 9.9 303 10.6 101120 53
2011-01-14 07:54:28 51°14.651 2°54.987 10.7 250 10.6 101130 53
2011-01-14 07:54:34 51°14.671 2°54.976 9.8 303 10.6 101130 53
2011-01-14 07:54:39 51°14.689 2°54.968 9.9 252 10.6 101130 54
2011-01-14 07:54:43 51°14.702 2°54.961 11.5 305 10.6 101130 54
2011-01-14 07:54:48 51°14.721 2°54.955 11 248 10.6 101140 54
2011-01-14 07:54:53 51°14.738 2°54.948 10 302 10.6 101140 54
2011-01-14 07:54:58 51°14.756 2°54.941 8.8 250 10.5 101140 54
2011-01-14 07:55:03 51°14.774 2°54.935 8.8 302 10.5 101140 54
2011-01-14 07:55:07 51°14.789 2°54.931 9.7 252 10.5 101130 53
2011-01-14 07:55:12 51°14.807 2°54.925 8.6 302 10.5 101130 53
2011-01-14 07:55:17 51°14.826 2°54.92 10.3 251 10.5 101100 53
2011-01-14 07:55:22 51°14.845 2°54.915 11.6 307 10.5 101100 53
2011-01-14 07:55:27 51°14.863 2°54.909 12.2 254 10.4 101090 54
2011-01-14 07:55:32 51°14.882 2°54.905 11 307 10.4 101090 54
2011-01-14 07:55:37 51°14.901 2°54.9 10.6 254 10.4 101090 53
2011-01-14 07:55:42 51°14.92 2°54.894 9.4 305 10.4 101090 53
2011-01-14 07:55:47 51°14.938 2°54.889 12 254 10.4 101100 52
2011-01-14 07:55:52 51°14.957 2°54.882 11.4 305 10.4 101100 52
2011-01-14 07:55:57 51°14.975 2°54.875 12.2 255 10.3 101100 52
2011-01-14 07:56:02 51°14.993 2°54.867 13.4 309 10.3 101100 52
2011-01-14 07:56:07 51°15.011 2°54.858 11.8 251 10.3 101090 53
2011-01-14 07:56:12 51°15.029 2°54.849 9.7 306 10.3 101090 53
2011-01-14 07:56:17 51°15.046 2°54.839 11.9 252 10.3 101090 53
2011-01-14 07:56:22 51°15.063 2°54.829 12.1 306 10.3 101090 53
2011-01-14 07:56:27 51°15.081 2°54.819 11.4 22 10.3 101090 52
2011-01-14 07:56:32 51°15.098 2°54.809 11.1 308 10.3 101090 52
2011-01-14 07:56:37 51°15.115 2°54.798 12.8 248 10.2 101080 52
2011-01-14 07:56:42 51°15.133 2°54.787 11.4 302 10.2 101080 52
2011-01-14 07:56:47 51°15.149 2°54.776 12.4 246 10.2 101090 53
2011-01-14 07:56:52 51°15.165 2°54.764 11.6 303 10.2 101090 53
2011-01-14 07:56:57 51°15.181 2°54.75 11 248 10.2 101090 53
2011-01-14 07:57:02 51°15.198 2°54.738 14.8 304 10.2 101090 53
2011-01-14 07:57:07 51°15.213 2°54.723 11.8 247 10.2 101080 53
2011-01-14 07:57:11 51°15.225 2°54.713 6.1 305 10.2 101080 53
2011-01-14 07:57:17 51°15.243 2°54.694 13.1 24 10.1 101080 52
2011-01-14 07:57:22 51°15.258 2°54.678 15.3 307 10.1 101080 52
2011-01-14 07:57:27 51°15.273 2°54.663 11.6 19 10.1 101080 53
2011-01-14 07:57:32 51°15.287 2°54.645 15 305 10.1 101080 53
2011-01-14 07:57:37 51°15.3 2°54.629 17.6 24 10.1 101070 53
2011-01-14 07:57:42 51°15.314 2°54.611 13.3 303 10.1 101070 53
2011-01-14 07:57:47 51°15.328 2°54.593 10.9 25 10 101080 52
2011-01-14 07:57:51 51°15.339 2°54.579 18.2 305 10 101080 52
2011-01-14 07:57:57 51°15.355 2°54.558 15 23 10 101060 53
2011-01-14 07:58:02 51°15.368 2°54.54 13.9 303 10 101060 53
2011-01-14 07:58:07 51°15.382 2°54.524 13.8 27 10 101060 52
2011-01-14 07:58:12 51°15.396 2°54.506 14.8 301 10 101060 52
2011-01-14 07:58:17 51°15.409 2°54.489 13.7 22 9.9 101060 52
2011-01-14 07:58:22 51°15.423 2°54.471 18.1 308 9.9 101060 52
2011-01-14 07:58:27 51°15.437 2°54.453 21 23 9.9 101060 52
2011-01-14 07:58:32 51°15.451 2°54.436 19.6 303 9.9 101060 52
2011-01-14 07:58:37 51°15.464 2°54.417 15 23 9.9 101060 53
2011-01-14 07:58:42 51°15.478 2°54.4 16 305 9.9 101060 53
2011-01-14 07:58:47 51°15.491 2°54.382 14.6 23 9.9 101060 52
2011-01-14 07:58:52 51°15.505 2°54.364 15.1 308 9.9 101060 52
2011-01-14 07:58:57 51°15.519 2°54.347 12.8 23 9.9 101060 52
2011-01-14 07:59:02 51°15.532 2°54.328 13.2 308 9.9 101060 52
2011-01-14 07:59:07 51°15.546 2°54.311 14.9 21 9.9 101060 52
2011-01-14 07:59:12 51°15.559 2°54.292 12.5 304 9.9 101060 52
2011-01-14 07:59:17 51°15.572 2°54.274 17.4 24 9.8 101060 53
2011-01-14 07:59:22 51°15.585 2°54.256 16.5 309 9.8 101060 53
2011-01-14 07:59:27 51°15.598 2°54.237 11.9 23 9.8 101060 52
2011-01-14 07:59:32 51°15.612 2°54.219 13.7 307 9.8 101060 52
2011-01-14 07:59:37 51°15.625 2°54.201 11.7 24 9.8 101060 52
2011-01-14 07:59:42 51°15.638 2°54.183 12 307 9.8 101060 52
2011-01-14 07:59:47 51°15.652 2°54.165 14.7 23 9.8 101080 52
2011-01-14 07:59:52 51°15.665 2°54.146 12.5 301 9.8 101080 52
2011-01-14 07:59:57 51°15.679 2°54.128 14.4 23 9.7 101070 52
2011-01-14 08:00:02 51°15.693 2°54.111 14.5 309 9.7 101070 52
2011-01-14 08:00:07 51°15.706 2°54.093 12.8 21 9.7 101070 52
2011-01-14 08:00:12 51°15.72 2°54.076 14.8 303 9.7 101070 52
2011-01-14 08:00:17 51°15.732 2°54.058 13.2 24 9.7 101060 51
2011-01-14 08:00:23 51°15.749 2°54.036 12.5 308 9.7 101060 51
2011-01-14 08:00:27 51°15.759 2°54.022 6.6 24 9.7 101070 52
2011-01-14 08:00:32 51°15.773 2°54.004 13 303 9.7 101070 52
2011-01-14 08:00:37 51°15.786 2°53.985 13.6 24 9.6 101070 52
2011-01-14 08:00:42 51°15.799 2°53.967 12.8 286 9.6 101070 52
2011-01-14 08:00:47 51°15.812 2°53.949 12.8 22 9.6 101070 53
2011-01-14 08:00:51 51°15.822 2°53.934 12.8 309 9.6 101070 53
2011-01-14 08:00:57 51°15.838 2°53.913 15.3 20 9.6 101080 52
2011-01-14 08:01:02 51°15.851 2°53.895 11.6 308 9.6 101080 52
2011-01-14 08:01:07 51°15.865 2°53.877 12.1 21 9.6 101060 52
2011-01-14 08:01:12 51°15.878 2°53.859 15.1 304 9.6 101060 52
2011-01-14 08:01:17 51°15.891 2°53.841 13.6 25 9.5 101070 52
2011-01-14 08:01:22 51°15.905 2°53.823 13.6 305 9.5 101070 52
2011-01-14 08:01:27 51°15.918 2°53.805 13.1 24 9.5 101070 52
2011-01-14 08:01:32 51°15.932 2°53.788 6.6 307 9.5 101070 52
2011-01-14 08:01:37 51°15.945 2°53.77 11.5 24 9.5 101060 52
2011-01-14 08:01:42 51°15.959 2°53.754 13.8 309 9.5 101060 52
2011-01-14 08:01:47 51°15.973 2°53.736 12.1 19 9.4 101060 52
2011-01-14 08:01:52 51°15.987 2°53.72 11.9 305 9.4 101060 52
2011-01-14 08:01:57 51°16.002 2°53.704 13 21 9.4 101070 52
2011-01-14 08:02:02 51°16.015 2°53.686 12 306 9.4 101070 52
2011-01-14 08:02:07 51°16.03 2°53.669 13.9 27 9.4 101060 52
2011-01-14 08:02:12 51°16.044 2°53.652 15.1 306 9.4 101060 52
2011-01-14 08:02:17 51°16.058 2°53.636 11.3 22 9.4 101070 51
2011-01-14 08:02:22 51°16.072 2°53.619 15.9 305 9.4 101070 51
2011-01-14 08:02:27 51°16.086 2°53.602 14.6 246 9.4 101050 52
2011-01-14 08:02:32 51°16.101 2°53.586 14.6 303 9.4 101050 52
2011-01-14 08:02:37 51°16.114 2°53.568 15.4 24 9.4 101060 52
2011-01-14 08:02:42 51°16.128 2°53.551 17.3 308 9.4 101060 52
2011-01-14 08:02:47 51°16.143 2°53.534 14.9 24 9.3 101070 52
2011-01-14 08:02:52 51°16.156 2°53.517 17.7 308 9.3 101070 52
2011-01-14 08:02:57 51°16.171 2°53.502 11.8 19 9.3 101060 52
2011-01-14 08:03:02 51°16.185 2°53.485 11.9 309 9.3 101060 52
2011-01-14 08:03:07 51°16.199 2°53.469 12.2 21 9.3 101060 52
2011-01-14 08:03:12 51°16.213 2°53.452 7 310 9.3 101060 52
2011-01-14 08:03:17 51°16.227 2°53.435 13.5 19 9.3 101060 51
2011-01-14 08:03:22 51°16.241 2°53.42 11.8 303 9.3 101060 51
2011-01-14 08:03:27 51°16.255 2°53.403 13.7 23 9.3 101050 52
2011-01-14 08:03:32 51°16.269 2°53.387 13.6 307 9.3 101050 52
2011-01-14 08:03:37 51°16.283 2°53.37 7.3 24 9.3 101050 52
2011-01-14 08:03:42 51°16.297 2°53.353 11.7 308 9.3 101050 52
2011-01-14 08:03:47 51°16.311 2°53.337 11.1 246 9.3 101050 52
2011-01-14 08:03:52 51°16.325 2°53.321 14.4 306 9.3 101050 52
2011-01-14 08:03:57 51°16.339 2°53.304 12.5 243 9.2 101050 51
2011-01-14 08:04:02 51°16.353 2°53.288 13.1 310 9.2 101050 51
2011-01-14 08:04:07 51°16.367 2°53.272 7.2 20 9.2 101050 52
2011-01-14 08:04:12 51°16.381 2°53.255 12.6 306 9.2 101050 52
2011-01-14 08:04:17 51°16.395 2°53.239 12.4 23 9.2 101070 52
2011-01-14 08:04:22 51°16.41 2°53.223 15.8 307 9.2 101070 52
2011-01-14 08:04:27 51°16.424 2°53.207 13.4 26 9.2 101070 52
2011-01-14 08:04:32 51°16.44 2°53.192 13.7 302 9.2 101070 52
2011-01-14 08:04:37 51°16.455 2°53.176 11.3 245 9.2 101060 52
2011-01-14 08:04:42 51°16.47 2°53.161 13.6 309 9.2 101060 52
2011-01-14 08:04:47 51°16.485 2°53.147 12.4 23 9.2 101050 52
2011-01-14 08:04:52 51°16.5 2°53.131 12.6 308 9.2 101050 52
2011-01-14 08:04:57 51°16.516 2°53.117 13.6 20 9.2 101050 52
2011-01-14 08:05:02 51°16.531 2°53.102 12.8 304 9.2 101050 52
2011-01-14 08:05:07 51°16.547 2°53.087 13.5 20 9.2 101060 52
2011-01-14 08:05:12 51°16.561 2°53.072 12.7 308 9.2 101060 52
2011-01-14 08:05:17 51°16.577 2°53.058 13.7 19 9.2 101050 52
2011-01-14 08:05:22 51°16.592 2°53.042 12.7 308 9.2 101050 52
2011-01-14 08:05:27 51°16.607 2°53.028 11.9 22 9.2 101050 52
2011-01-14 08:05:32 51°16.622 2°53.015 14.1 303 9.2 101050 52
2011-01-14 08:05:37 51°16.637 2°53 12.1 246 9.2 101050 52
2011-01-14 08:05:42 51°16.652 2°52.986 14.8 307 9.2 101050 52
2011-01-14 08:05:47 51°16.668 2°52.972 13.7 249 9.1 101050 51
2011-01-14 08:05:51 51°16.68 2°52.96 13 306 9.1 101050 51
2011-01-14 08:05:57 51°16.699 2°52.944 17.3 247 9.1 101060 52
2011-01-14 08:06:02 51°16.713 2°52.928 11.2 307 9.1 101060 52
2011-01-14 08:06:07 51°16.729 2°52.914 10.7 21 9.1 101060 53
2011-01-14 08:06:12 51°16.744 2°52.9 11 303 9.1 101060 53
2011-01-14 08:06:17 51°16.759 2°52.886 15.3 22 9.1 101050 52
2011-01-14 08:06:22 51°16.774 2°52.871 12.8 311 9.1 101050 52
2011-01-14 08:06:27 51°16.79 2°52.857 11.4 23 9.1 101050 53
2011-01-14 08:06:32 51°16.804 2°52.841 11.6 304 9.1 101050 53
2011-01-14 08:06:37 51°16.821 2°52.829 13.3 250 9.1 101060 51
2011-01-14 08:06:42 51°16.835 2°52.812 10.9 306 9.1 101060 51
2011-01-14 08:06:47 51°16.851 2°52.799 11.8 25 9.1 101050 53
2011-01-14 08:06:52 51°16.866 2°52.784 10.7 302 9.1 101050 53
2011-01-14 08:06:57 51°16.881 2°52.77 12.1 21 9.1 101060 52
2011-01-14 08:07:02 51°16.897 2°52.755 12.4 311 9.1 101060 52
2011-01-14 08:07:07 51°16.912 2°52.741 12.9 18 9.1 101070 52
2011-01-14 08:07:11 51°16.925 2°52.73 12.3 306 9.1 101070 52
2011-01-14 08:07:17 51°16.944 2°52.713 13.9 252 9 101070 52
2011-01-14 08:07:22 51°16.96 2°52.7 11.7 303 9 101070 52
2011-01-14 08:07:27 51°16.976 2°52.686 11.8 22 9 101050 52
2011-01-14 08:07:32 51°16.992 2°52.674 10.9 305 9 101050 52
2011-01-14 08:07:37 51°17.01 2°52.664 12.5 249 9 101050 52
2011-01-14 08:07:42 51°17.027 2°52.655 12.5 285 9 101050 52
2011-01-14 08:07:47 51°17.044 2°52.645 10.4 251 9 101060 53
2011-01-14 08:07:51 51°17.059 2°52.642 11.7 308 9 101060 53
2011-01-14 08:07:57 51°17.08 2°52.63 11.2 253 9 101060 52
2011-01-14 08:08:02 51°17.099 2°52.627 13.6 307 9 101060 52
2011-01-14 08:08:07 51°17.116 2°52.618 10.5 256 9.1 101060 53
2011-01-14 08:08:12 51°17.135 2°52.615 12.3 306 9.1 101060 53
2011-01-14 08:08:17 51°17.152 2°52.607 8.9 254 9.1 101060 52
2011-01-14 08:08:22 51°17.17 2°52.604 11.9 305 9.1 101060 52
2011-01-14 08:08:27 51°17.188 2°52.598 9.1 257 9.1 101070 51
2011-01-14 08:08:31 51°17.203 2°52.598 13 307 9.1 101070 51
2011-01-14 08:08:37 51°17.226 2°52.591 9.9 257 9.1 101070 53
2011-01-14 08:08:42 51°17.244 2°52.588 11.5 308 9.1 101070 53
2011-01-14 08:08:47 51°17.262 2°52.586 9.7 255 9.1 101080 52
2011-01-14 08:08:52 51°17.281 2°52.583 8.3 308 9.1 101080 52
2011-01-14 08:08:57 51°17.3 2°52.579 11.3 260 9.1 101080 53
2011-01-14 08:09:02 51°17.318 2°52.579 10.2 304 9.1 101080 53
2011-01-14 08:09:07 51°17.337 2°52.573 12 254 9.1 101080 53
2011-01-14 08:09:11 51°17.351 2°52.569 11.4 308 9.1 101080 53
2011-01-14 08:09:17 51°17.373 2°52.563 9.5 257 9 101070 52
2011-01-14 08:09:22 51°17.392 2°52.56 10.8 301 9 101070 52
2011-01-14 08:09:27 51°17.41 2°52.554 10 258 9 101080 51
2011-01-14 08:09:32 51°17.429 2°52.553 10.8 301 9 101080 51
2011-01-14 08:09:37 51°17.447 2°52.548 9.9 255 9 101070 53
2011-01-14 08:09:42 51°17.466 2°52.546 10.5 306 9 101070 53
2011-01-14 08:09:47 51°17.484 2°52.543 7.7 257 9 101070 53
2011-01-14 08:09:51 51°17.499 2°52.542 8.7 302 9 101070 53
2011-01-14 08:09:57 51°17.521 2°52.539 8.3 258 9 101080 51
2011-01-14 08:10:02 51°17.54 2°52.538 10.3 303 9 101080 51
2011-01-14 08:10:07 51°17.558 2°52.535 9 259 9 101070 52
2011-01-14 08:10:12 51°17.577 2°52.535 5.6 304 9 101070 52
2011-01-14 08:10:17 51°17.595 2°52.535 6.7 256 8.9 101090 53
2011-01-14 08:10:22 51°17.614 2°52.533 10.5 308 8.9 101090 53
2011-01-14 08:10:27 51°17.633 2°52.532 12.3 258 8.9 101070 52
2011-01-14 08:10:32 51°17.651 2°52.529 9.8 304 8.9 101070 52
2011-01-14 08:10:37 51°17.669 2°52.527 8.5 259 8.9 101070 52
2011-01-14 08:10:42 51°17.688 2°52.525 7 302 8.9 101070 52
2011-01-14 08:10:47 51°17.707 2°52.522 7.3 262 8.9 101070 52
2011-01-14 08:10:52 51°17.726 2°52.522 9.1 306 8.9 101070 52
2011-01-14 08:10:57 51°17.745 2°52.52 9.4 254 8.9 101080 53
2011-01-14 08:11:02 51°17.763 2°52.514 9.2 304 8.9 101080 53
2011-01-14 08:11:07 51°17.781 2°52.51 9.2 256 8.9 101080 52
2011-01-14 08:11:12 51°17.8 2°52.506 9.5 307 8.9 101080 52
2011-01-14 08:11:17 51°17.818 2°52.504 10.6 251 8.9 101100 52
2011-01-14 08:11:22 51°17.836 2°52.498 10 302 8.9 101100 52
2011-01-14 08:11:27 51°17.855 2°52.495 8.9 251 8.9 101080 53
2011-01-14 08:11:32 51°17.873 2°52.491 10 304 8.9 101080 53
2011-01-14 08:11:37 51°17.892 2°52.488 11.9 257 8.9 101070 53
2011-01-14 08:11:42 51°17.91 2°52.484 10.7 307 8.9 101070 53
2011-01-14 08:11:47 51°17.929 2°52.482 11.1 254 8.8 101080 53
2011-01-14 08:11:52 51°17.947 2°52.479 12.3 309 8.8 101080 53
2011-01-14 08:11:57 51°17.966 2°52.477 6.5 254 8.9 101080 53
2011-01-14 08:12:02 51°17.985 2°52.475 8.6 308 8.9 101080 53
2011-01-14 08:12:07 51°18.003 2°52.472 7.8 255 8.8 101090 52
2011-01-14 08:12:12 51°18.022 2°52.471 10 304 8.8 101090 52
2011-01-14 08:12:17 51°18.041 2°52.467 6.5 256 8.9 101090 53
2011-01-14 08:12:22 51°18.06 2°52.467 11 311 8.9 101090 53
2011-01-14 08:12:27 51°18.079 2°52.465 8.9 257 8.8 101080 53
2011-01-14 08:12:32 51°18.097 2°52.461 9.1 304 8.8 101080 53
2011-01-14 08:12:37 51°18.116 2°52.46 8.6 260 8.8 101090 51
2011-01-14 08:12:42 51°18.135 2°52.456 8.7 301 8.8 101090 51
2011-01-14 08:12:47 51°18.153 2°52.456 10.2 255 8.8 101070 51
2011-01-14 08:12:52 51°18.172 2°52.453 8.9 310 8.8 101070 51
2011-01-14 08:12:57 51°18.191 2°52.451 9.9 257 8.8 101080 53
2011-01-14 08:13:02 51°18.21 2°52.449 10 302 8.8 101080 53
2011-01-14 08:13:07 51°18.228 2°52.446 9.4 255 8.8 101080 51
2011-01-14 08:13:11 51°18.243 2°52.446 11.6 303 8.8 101080 51
2011-01-14 08:13:17 51°18.265 2°52.44 9.7 257 8.8 101070 52
2011-01-14 08:13:22 51°18.284 2°52.439 9.6 306 8.8 101070 52
2011-01-14 08:13:27 51°18.302 2°52.435 8.3 258 8.8 101080 53
2011-01-14 08:13:32 51°18.321 2°52.434 10.9 306 8.8 101080 53
2011-01-14 08:13:37 51°18.339 2°52.431 9.4 256 8.8 101070 53
2011-01-14 08:13:42 51°18.358 2°52.429 9.4 305 8.8 101070 53
2011-01-14 08:13:47 51°18.377 2°52.425 9.5 255 8.8 101080 52
2011-01-14 08:13:52 51°18.396 2°52.426 10.9 307 8.8 101080 52
2011-01-14 08:13:57 51°18.414 2°52.42 8.9 253 8.8 101090 51
2011-01-14 08:14:02 51°18.433 2°52.418 9.8 308 8.8 101090 51
2011-01-14 08:14:07 51°18.451 2°52.414 9.4 258 8.7 101090 52
2011-01-14 08:14:12 51°18.47 2°52.413 7.2 309 8.7 101090 52
2011-01-14 08:14:17 51°18.489 2°52.409 8.6 256 8.7 101080 51
2011-01-14 08:14:23 51°18.511 2°52.407 12.5 310 8.7 101080 51
2011-01-14 08:14:27 51°18.526 2°52.404 9.1 256 8.7 101080 53
2011-01-14 08:14:32 51°18.545 2°52.404 10.8 308 8.7 101080 53
2011-01-14 08:14:37 51°18.563 2°52.397 9.9 258 8.7 101070 52
2011-01-14 08:14:42 51°18.582 2°52.398 11.2 304 8.7 101070 52
2011-01-14 08:14:47 51°18.6 2°52.391 7 254 8.7 101080 52
2011-01-14 08:14:52 51°18.618 2°52.388 9.4 303 8.7 101080 52
2011-01-14 08:14:57 51°18.637 2°52.385 10.1 255 8.7 101070 52
2011-01-14 08:15:02 51°18.656 2°52.382 10.7 306 8.7 101070 52
2011-01-14 08:15:07 51°18.674 2°52.383 7.4 255 8.7 101080 52
2011-01-14 08:15:12 51°18.693 2°52.379 8 303 8.7 101080 52
2011-01-14 08:15:17 51°18.711 2°52.378 10.9 260 8.7 101080 52
2011-01-14 08:15:22 51°18.73 2°52.375 11.2 309 8.7 101080 52
2011-01-14 08:15:27 51°18.749 2°52.374 7.9 256 8.7 101070 53
2011-01-14 08:15:32 51°18.767 2°52.37 9.1 302 8.7 101070 53
2011-01-14 08:15:37 51°18.786 2°52.369 9.8 258 8.7 101090 53
2011-01-14 08:15:42 51°18.804 2°52.362 6.9 311 8.7 101090 53
2011-01-14 08:15:47 51°18.823 2°52.364 9.4 256 8.7 101080 51
2011-01-14 08:15:52 51°18.842 2°52.359 8.9 308 8.7 101080 51
2011-01-14 08:15:57 51°18.861 2°52.358 8.9 253 8.7 101070 53
2011-01-14 08:16:02 51°18.879 2°52.352 7.5 302 8.7 101070 53
2011-01-14 08:16:07 51°18.898 2°52.353 11.3 254 8.6 101080 52
2011-01-14 08:16:11 51°18.913 2°52.35 9.2 306 8.6 101080 52
2011-01-14 08:16:17 51°18.936 2°52.348 6.9 257 8.6 101070 53
2011-01-14 08:16:22 51°18.954 2°52.347 6.9 304 8.6 101070 53
2011-01-14 08:16:27 51°18.973 2°52.345 7.5 259 8.6 101070 51
2011-01-14 08:16:32 51°18.992 2°52.344 8.3 305 8.6 101070 51
2011-01-14 08:16:37 51°19.011 2°52.345 10.3 258 8.6 101070 53
2011-01-14 08:16:42 51°19.029 2°52.34 9.8 284 8.6 101070 53
2011-01-14 08:16:47 51°19.048 2°52.342 9.3 258 8.6 101070 53
2011-01-14 08:16:51 51°19.063 2°52.339 7.5 308 8.6 101070 53
2011-01-14 08:16:57 51°19.086 2°52.339 10.2 253 8.6 101070 51
2011-01-14 08:17:02 51°19.104 2°52.336 7.1 305 8.6 101070 51
2011-01-14 08:17:07 51°19.123 2°52.337 9.5 256 8.6 101090 51
2011-01-14 08:17:12 51°19.142 2°52.333 8 301 8.6 101090 51
2011-01-14 08:17:17 51°19.161 2°52.333 9.5 257 8.6 101080 52
2011-01-14 08:17:22 51°19.179 2°52.331 9 305 8.6 101080 52
2011-01-14 08:17:27 51°19.199 2°52.331 10.4 255 8.6 101080 52
2011-01-14 08:17:32 51°19.217 2°52.326 6.7 309 8.6 101080 52
2011-01-14 08:17:37 51°19.236 2°52.327 8.9 259 8.6 101070 53
2011-01-14 08:17:42 51°19.254 2°52.322 7.9 303 8.6 101070 53
2011-01-14 08:17:47 51°19.274 2°52.324 9.4 256 8.6 101070 52
2011-01-14 08:17:52 51°19.292 2°52.319 11.3 310 8.6 101070 52
2011-01-14 08:17:57 51°19.312 2°52.319 8.7 259 8.6 101090 52
2011-01-14 08:18:03 51°19.334 2°52.314 7.2 304 8.6 101090 52
2011-01-14 08:18:07 51°19.349 2°52.317 12.5 254 8.6 101080 53
2011-01-14 08:18:12 51°19.367 2°52.309 9 310 8.6 101080 53
2011-01-14 08:18:17 51°19.386 2°52.308 11.2 256 8.6 101080 52
2011-01-14 08:18:23 51°19.409 2°52.305 8.5 305 8.6 101080 52
2011-01-14 08:18:27 51°19.424 2°52.305 10.8 254 8.6 101080 52
2011-01-14 08:18:32 51°19.443 2°52.302 10.3 302 8.6 101080 52
2011-01-14 08:18:37 51°19.461 2°52.301 7.5 255 8.6 101070 52
2011-01-14 08:18:42 51°19.48 2°52.301 9.5 278 8.6 101070 52
2011-01-14 08:18:47 51°19.499 2°52.298 12.9 258 8.6 101060 53
2011-01-14 08:18:52 51°19.517 2°52.293 8.1 306 8.6 101060 53
2011-01-14 08:18:57 51°19.536 2°52.292 8 255 8.6 101070 53
2011-01-14 08:19:02 51°19.554 2°52.288 7.1 310 8.6 101070 53
2011-01-14 08:19:07 51°19.573 2°52.287 10.5 260 8.6 101080 52
2011-01-14 08:19:12 51°19.592 2°52.285 7.1 305 8.6 101080 52
2011-01-14 08:19:17 51°19.611 2°52.285 8 256 8.6 101080 52
2011-01-14 08:19:22 51°19.629 2°52.284 5.7 307 8.6 101080 52
2011-01-14 08:19:27 51°19.649 2°52.284 7.7 255 8.6 101090 53
2011-01-14 08:19:32 51°19.667 2°52.281 8.8 302 8.6 101090 53
2011-01-14 08:19:37 51°19.686 2°52.28 7.6 256 8.6 101070 52
2011-01-14 08:19:42 51°19.705 2°52.278 10 302 8.6 101070 52
2011-01-14 08:19:47 51°19.724 2°52.278 7.9 251 8.6 101070 52
2011-01-14 08:19:52 51°19.743 2°52.274 9.2 306 8.6 101070 52
2011-01-14 08:19:57 51°19.761 2°52.272 5.9 251 8.6 101070 51
2011-01-14 08:20:02 51°19.78 2°52.272 9.9 304 8.6 101070 51
2011-01-14 08:20:07 51°19.798 2°52.267 9.3 255 8.6 101060 53
2011-01-14 08:20:12 51°19.817 2°52.266 10.1 306 8.6 101060 53
2011-01-14 08:20:17 51°19.836 2°52.265 10.4 256 8.6 101060 52
2011-01-14 08:20:22 51°19.854 2°52.263 9.6 307 8.6 101060 52
2011-01-14 08:20:27 51°19.873 2°52.262 8.4 256 8.6 101080 53
2011-01-14 08:20:32 51°19.892 2°52.26 8.9 306 8.6 101080 53
2011-01-14 08:20:37 51°19.911 2°52.257 9.5 255 8.6 101060 52
2011-01-14 08:20:42 51°19.929 2°52.257 9.4 279 8.6 101060 52
2011-01-14 08:20:47 51°19.948 2°52.254 8.5 256 8.6 101060 53
2011-01-14 08:20:52 51°19.966 2°52.25 11.4 308 8.6 101060 53
2011-01-14 08:20:57 51°19.985 2°52.248 10.4 259 8.6 101070 51
2011-01-14 08:21:02 51°20.003 2°52.247 8.7 309 8.6 101070 51
2011-01-14 08:21:07 51°20.022 2°52.243 7 255 8.6 101060 53
2011-01-14 08:21:12 51°20.04 2°52.241 8.3 308 8.6 101060 53
2011-01-14 08:21:17 51°20.059 2°52.241 11 254 8.6 101080 53
2011-01-14 08:21:22 51°20.078 2°52.238 13.5 306 8.6 101080 53
2011-01-14 08:21:27 51°20.096 2°52.237 8.7 253 8.6 101080 53
2011-01-14 08:21:32 51°20.115 2°52.236 8.2 306 8.6 101080 53
2011-01-14 08:21:37 51°20.133 2°52.234 6.4 256 8.6 101070 53
2011-01-14 08:21:42 51°20.151 2°52.233 10.6 307 8.6 101070 53
2011-01-14 08:21:47 51°20.17 2°52.231 6.8 254 8.6 101060 52
2011-01-14 08:21:52 51°20.189 2°52.23 10.1 308 8.6 101060 52
2011-01-14 08:21:57 51°20.208 2°52.228 6.8 257 8.5 101060 53
2011-01-14 08:22:02 51°20.226 2°52.227 11.7 308 8.5 101060 53
2011-01-14 08:22:07 51°20.245 2°52.225 9.4 256 8.5 101070 53
2011-01-14 08:22:12 51°20.264 2°52.223 8 309 8.5 101070 53
2011-01-14 08:22:17 51°20.283 2°52.223 9.1 260 8.5 101050 51
2011-01-14 08:22:22 51°20.301 2°52.221 9.4 308 8.5 101050 51
2011-01-14 08:22:27 51°20.32 2°52.219 7.9 259 8.5 101080 52
2011-01-14 08:22:32 51°20.338 2°52.22 8.2 302 8.5 101080 52
2011-01-14 08:22:37 51°20.357 2°52.217 8.3 260 8.5 101070 52
2011-01-14 08:22:42 51°20.375 2°52.215 9 284 8.5 101070 52
2011-01-14 08:22:47 51°20.394 2°52.214 9.7 256 8.5 101060 52
2011-01-14 08:22:52 51°20.412 2°52.21 8.4 303 8.5 101060 52
2011-01-14 08:22:57 51°20.431 2°52.209 9.2 251 8.5 101080 53
2011-01-14 08:23:03 51°20.453 2°52.204 9.3 303 8.5 101080 53
2011-01-14 08:23:07 51°20.467 2°52.203 8.1 258 8.5 101070 52
2011-01-14 08:23:12 51°20.486 2°52.201 10.4 305 8.5 101070 52
2011-01-14 08:23:17 51°20.505 2°52.199 9.7 257 8.5 101060 52
2011-01-14 08:23:22 51°20.524 2°52.196 5 306 8.5 101060 52
2011-01-14 08:23:27 51°20.543 2°52.197 10.3 253 8.5 101060 51
2011-01-14 08:23:32 51°20.56 2°52.189 7 306 8.5 101060 51
2011-01-14 08:23:37 51°20.578 2°52.187 9.3 258 8.5 101070 51
2011-01-14 08:23:42 51°20.597 2°52.183 7.6 309 8.5 101070 51
2011-01-14 08:23:47 51°20.615 2°52.181 6.5 258 8.5 101070 52
2011-01-14 08:23:52 51°20.634 2°52.182 10.4 306 8.5 101070 52
2011-01-14 08:23:57 51°20.652 2°52.178 5.5 263 8.5 101060 52
2011-01-14 08:24:02 51°20.671 2°52.18 9.9 307 8.5 101060 52
2011-01-14 08:24:07 51°20.69 2°52.178 7.5 261 8.5 101070 53
2011-01-14 08:24:12 51°20.709 2°52.182 9.7 310 8.5 101070 53
2011-01-14 08:24:17 51°20.727 2°52.181 6.3 260 8.5 101070 52
2011-01-14 08:24:22 51°20.745 2°52.182 7 301 8.5 101070 52
2011-01-14 08:24:27 51°20.764 2°52.185 6.1 262 8.5 101070 52
2011-01-14 08:24:32 51°20.783 2°52.185 7.1 308 8.5 101070 52
2011-01-14 08:24:37 51°20.802 2°52.189 7.5 263 8.5 101070 53
2011-01-14 08:24:42 51°20.821 2°52.189 4.3 282 8.5 101070 53
2011-01-14 08:24:47 51°20.84 2°52.193 7.6 258 8.5 101080 53
2011-01-14 08:24:52 51°20.859 2°52.193 4.8 305 8.5 101080 53
2011-01-14 08:24:57 51°20.877 2°52.196 7.6 263 8.5 101060 53
2011-01-14 08:25:03 51°20.9 2°52.196 7.4 303 8.5 101060 53
2011-01-14 08:25:07 51°20.915 2°52.2 8.9 259 8.5 101070 53
2011-01-14 08:25:12 51°20.933 2°52.201 5.8 309 8.5 101070 53
2011-01-14 08:25:17 51°20.952 2°52.203 6.6 261 8.5 101060 52
2011-01-14 08:25:22 51°20.97 2°52.207 5.4 307 8.5 101060 52
2011-01-14 08:25:27 51°20.989 2°52.207 8 259 8.5 101070 52
2011-01-14 08:25:32 51°21.008 2°52.213 8.7 303 8.5 101070 52
2011-01-14 08:25:37 51°21.026 2°52.215 12 258 8.5 101070 53
2011-01-14 08:25:42 51°21.045 2°52.217 9.7 307 8.5 101070 53
2011-01-14 08:25:47 51°21.064 2°52.218 7 260 8.5 101070 51
2011-01-14 08:25:52 51°21.083 2°52.22 8.9 306 8.5 101070 51
2011-01-14 08:25:57 51°21.102 2°52.222 8.3 260 8.5 101060 52
2011-01-14 08:26:02 51°21.121 2°52.223 3.7 311 8.5 101060 52
2011-01-14 08:26:07 51°21.14 2°52.227 8.5 257 8.5 101070 53
2011-01-14 08:26:12 51°21.159 2°52.228 10.5 307 8.5 101070 53
2011-01-14 08:26:17 51°21.177 2°52.225 6.3 262 8.5 101070 53
2011-01-14 08:26:22 51°21.196 2°52.228 7.2 311 8.5 101070 53
2011-01-14 08:26:27 51°21.214 2°52.228 4.8 261 8.5 101070 52
2011-01-14 08:26:32 51°21.233 2°52.23 7.2 308 8.5 101070 52
2011-01-14 08:26:37 51°21.251 2°52.23 7.4 261 8.5 101060 53
2011-01-14 08:26:42 51°21.27 2°52.232 7.4 285 8.5 101060 53
2011-01-14 08:26:47 51°21.289 2°52.233 6 261 8.5 101070 52
2011-01-14 08:26:52 51°21.308 2°52.235 5.1 302 8.5 101070 52
2011-01-14 08:26:57 51°21.327 2°52.236 4.4 263 8.5 101070 53
2011-01-14 08:27:02 51°21.346 2°52.239 7.8 305 8.5 101070 53
2011-01-14 08:27:07 51°21.365 2°52.242 6.8 262 8.5 101070 52
2011-01-14 08:27:12 51°21.384 2°52.241 7.6 304 8.5 101070 52
2011-01-14 08:27:17 51°21.403 2°52.243 7.6 255 8.5 101060 53
2011-01-14 08:27:22 51°21.422 2°52.246 5.2 310 8.5 101060 53
2011-01-14 08:27:27 51°21.441 2°52.246 8.6 255 8.5 101060 52
2011-01-14 08:27:32 51°21.459 2°52.251 8.2 303 8.5 101060 52
2011-01-14 08:27:37 51°21.478 2°52.251 9 262 8.5 101080 53
2011-01-14 08:27:42 51°21.497 2°52.254 5.7 302 8.5 101080 53
2011-01-14 08:27:47 51°21.516 2°52.255 10 257 8.5 101060 53
2011-01-14 08:27:52 51°21.535 2°52.256 6.9 305 8.5 101060 53
2011-01-14 08:27:57 51°21.555 2°52.258 8.6 260 8.5 101060 51
2011-01-14 08:28:02 51°21.573 2°52.26 6.9 306 8.5 101060 51
2011-01-14 08:28:07 51°21.593 2°52.261 7.3 260 8.5 101070 53
2011-01-14 08:28:12 51°21.612 2°52.265 8.7 303 8.5 101070 53
2011-01-14 08:28:17 51°21.631 2°52.267 8.3 261 8.5 101060 53
2011-01-14 08:28:22 51°21.65 2°52.27 9 309 8.5 101060 53
2011-01-14 08:28:27 51°21.669 2°52.272 9.9 257 8.5 101070 52
2011-01-14 08:28:32 51°21.689 2°52.273 5.7 310 8.5 101070 52
2011-01-14 08:28:37 51°21.708 2°52.278 9 258 8.5 101070 52
2011-01-14 08:28:42 51°21.727 2°52.279 6.5 281 8.5 101070 52
2011-01-14 08:28:47 51°21.747 2°52.282 7.4 259 8.4 101060 52
2011-01-14 08:28:52 51°21.766 2°52.283 8.6 303 8.4 101060 52
2011-01-14 08:28:57 51°21.785 2°52.286 8.7 260 8.4 101060 52
2011-01-14 08:29:02 51°21.804 2°52.288 6.6 309 8.4 101060 52
2011-01-14 08:29:07 51°21.823 2°52.29 8.3 263 8.4 101080 51
2011-01-14 08:29:12 51°21.842 2°52.293 7.2 306 8.4 101080 51
2011-01-14 08:29:17 51°21.861 2°52.297 11.5 257 8.4 101070 52
2011-01-14 08:29:22 51°21.88 2°52.296 5.4 306 8.4 101070 52
2011-01-14 08:29:27 51°21.899 2°52.298 7.4 260 8.4 101080 52
2011-01-14 08:29:32 51°21.919 2°52.303 8.9 304 8.4 101080 52
2011-01-14 08:29:37 51°21.938 2°52.299 10.1 256 8.4 101070 51
2011-01-14 08:29:43 51°21.96 2°52.301 9.4 304 8.4 101070 51
2011-01-14 08:29:47 51°21.975 2°52.299 9 261 8.4 101060 51
2011-01-14 08:29:52 51°21.994 2°52.3 7.6 307 8.4 101060 51
2011-01-14 08:29:57 51°22.013 2°52.3 9.4 260 8.4 101060 53
2011-01-14 08:30:03 51°22.035 2°52.303 9.3 307 8.4 101060 53
2011-01-14 08:30:07 51°22.051 2°52.303 6.6 259 8.4 101060 52
2011-01-14 08:30:12 51°22.07 2°52.305 7.4 302 8.4 101060 52
2011-01-14 08:30:17 51°22.089 2°52.307 7.3 259 8.4 101070 52
2011-01-14 08:30:22 51°22.108 2°52.311 7.5 309 8.4 101070 52
2011-01-14 08:30:27 51°22.127 2°52.31 8.5 260 8.4 101060 53
2011-01-14 08:30:32 51°22.146 2°52.314 4.4 311 8.4 101060 53
2011-01-14 08:30:37 51°22.165 2°52.316 9.8 258 8.4 101060 53
2011-01-14 08:30:42 51°22.184 2°52.317 6.2 280 8.4 101060 53
2011-01-14 08:30:47 51°22.203 2°52.321 8.6 262 8.4 101070 53
2011-01-14 08:30:52 51°22.222 2°52.324 5.3 308 8.4 101070 53
2011-01-14 08:30:57 51°22.242 2°52.325 9.9 262 8.4 101070 53
2011-01-14 08:31:02 51°22.26 2°52.328 7.1 302 8.4 101070 53
2011-01-14 08:31:07 51°22.279 2°52.328 10.1 258 8.4 101060 53
2011-01-14 08:31:12 51°22.298 2°52.331 8.2 310 8.4 101060 53
2011-01-14 08:31:17 51°22.317 2°52.332 5.9 262 8.4 101060 51
2011-01-14 08:31:22 51°22.336 2°52.335 9 305 8.4 101060 51
2011-01-14 08:31:27 51°22.356 2°52.334 6.2 260 8.4 101070 53
2011-01-14 08:31:32 51°22.374 2°52.338 7.7 301 8.4 101070 53
2011-01-14 08:31:37 51°22.394 2°52.336 7.1 256 8.4 101050 53
2011-01-14 08:31:42 51°22.413 2°52.338 6.7 309 8.4 101050 53
2011-01-14 08:31:47 51°22.432 2°52.338 5.9 261 8.4 101060 52
2011-01-14 08:31:52 51°22.45 2°52.34 4.7 308 8.4 101060 52
2011-01-14 08:31:57 51°22.47 2°52.341 7.6 260 8.4 101070 51
2011-01-14 08:32:03 51°22.493 2°52.343 4.4 308 8.4 101070 51
2011-01-14 08:32:07 51°22.508 2°52.344 4.4 263 8.4 101050 53
2011-01-14 08:32:12 51°22.527 2°52.348 7.3 301 8.4 101050 53
2011-01-14 08:32:17 51°22.546 2°52.345 5.4 263 8.4 101060 53
2011-01-14 08:32:22 51°22.565 2°52.35 11.4 307 8.4 101060 53
2011-01-14 08:32:27 51°22.585 2°52.349 9.1 262 8.3 101050 51
2011-01-14 08:32:32 51°22.604 2°52.348 5.1 310 8.3 101050 51
2011-01-14 08:32:37 51°22.623 2°52.35 6.2 262 8.3 101050 54
2011-01-14 08:32:42 51°22.642 2°52.352 6.5 279 8.3 101050 54
2011-01-14 08:32:47 51°22.66 2°52.351 4.6 263 8.3 101050 51
2011-01-14 08:32:52 51°22.68 2°52.353 8.3 307 8.3 101050 51
2011-01-14 08:32:57 51°22.698 2°52.353 6.3 256 8.3 101050 53
2011-01-14 08:33:02 51°22.717 2°52.352 8.5 304 8.3 101050 53
2011-01-14 08:33:07 51°22.736 2°52.354 4.4 262 8.3 101040 51
2011-01-14 08:33:12 51°22.755 2°52.355 6.2 301 8.3 101040 51
2011-01-14 08:33:17 51°22.773 2°52.355 7.3 265 8.4 101050 51
2011-01-14 08:33:22 51°22.792 2°52.359 8 311 8.4 101050 51
2011-01-14 08:33:27 51°22.811 2°52.356 5.2 262 8.4 101050 53
2011-01-14 08:33:32 51°22.83 2°52.362 7 303 8.4 101050 53
2011-01-14 08:33:37 51°22.85 2°52.359 6.9 259 8.4 101040 52
2011-01-14 08:33:43 51°22.872 2°52.36 7.5 303 8.4 101040 52
2011-01-14 08:33:47 51°22.887 2°52.359 9.7 259 8.4 101050 53
2011-01-14 08:33:52 51°22.906 2°52.356 11.6 309 8.4 101050 53
2011-01-14 08:33:57 51°22.924 2°52.357 10.9 257 8.4 101040 53
2011-01-14 08:34:03 51°22.947 2°52.356 8.6 305 8.4 101040 53
2011-01-14 08:34:07 51°22.962 2°52.355 8 262 8.3 101050 51
2011-01-14 08:34:12 51°22.981 2°52.353 4.6 309 8.3 101050 51
2011-01-14 08:34:17 51°23 2°52.354 6.5 264 8.3 101040 53
2011-01-14 08:34:22 51°23.019 2°52.357 9.1 306 8.3 101040 53
2011-01-14 08:34:27 51°23.038 2°52.355 10.4 258 8.3 101030 52
2011-01-14 08:34:32 51°23.056 2°52.355 8.3 306 8.3 101030 52
2011-01-14 08:34:37 51°23.075 2°52.353 4.9 265 8.4 101040 54
2011-01-14 08:34:42 51°23.094 2°52.357 7.9 282 8.4 101040 54
2011-01-14 08:34:47 51°23.113 2°52.354 8.8 262 8.4 101040 52
2011-01-14 08:34:52 51°23.132 2°52.354 7.9 307 8.4 101040 52
2011-01-14 08:34:57 51°23.151 2°52.353 5.1 262 8.4 101040 52
2011-01-14 08:35:02 51°23.17 2°52.357 10.6 305 8.4 101040 52
2011-01-14 08:35:07 51°23.189 2°52.356 10.6 259 8.4 101050 52
2011-01-14 08:35:12 51°23.208 2°52.355 4.5 305 8.4 101050 52
2011-01-14 08:35:17 51°23.227 2°52.358 5.7 263 8.4 101050 52
2011-01-14 08:35:22 51°23.246 2°52.36 6.1 304 8.4 101050 52
2011-01-14 08:35:27 51°23.265 2°52.358 3.6 266 8.3 101040 52
2011-01-14 08:35:32 51°23.284 2°52.363 6.4 307 8.3 101040 52
2011-01-14 08:35:37 51°23.303 2°52.363 5.1 268 8.3 101030 51
2011-01-14 08:35:43 51°23.326 2°52.369 8.4 310 8.3 101030 51
2011-01-14 08:35:47 51°23.341 2°52.365 4.6 265 8.3 101040 52
2011-01-14 08:35:52 51°23.36 2°52.371 5.7 308 8.3 101040 52
2011-01-14 08:35:57 51°23.379 2°52.369 5.8 264 8.3 101040 51
2011-01-14 08:36:02 51°23.398 2°52.373 9.1 305 8.3 101040 51
2011-01-14 08:36:07 51°23.417 2°52.372 6 263 8.3 101050 51
2011-01-14 08:36:12 51°23.436 2°52.377 7.3 306 8.3 101050 51
2011-01-14 08:36:17 51°23.455 2°52.378 5 264 8.3 101040 52
2011-01-14 08:36:22 51°23.475 2°52.382 6.2 301 8.3 101040 52
2011-01-14 08:36:27 51°23.493 2°52.384 4.1 263 8.3 101040 54
2011-01-14 08:36:31 51°23.509 2°52.389 6.7 310 8.3 101040 54
2011-01-14 08:36:37 51°23.532 2°52.387 6.9 263 8.3 101040 52
2011-01-14 08:36:42 51°23.551 2°52.394 7.9 279 8.3 101040 52
2011-01-14 08:36:47 51°23.57 2°52.392 10.6 255 8.3 101040 52
2011-01-14 08:36:52 51°23.589 2°52.395 6.5 305 8.3 101040 52
2011-01-14 08:36:57 51°23.608 2°52.395 7.9 262 8.3 101040 54
2011-01-14 08:37:02 51°23.627 2°52.4 8.4 309 8.3 101040 54
2011-01-14 08:37:07 51°23.646 2°52.399 5 263 8.3 101050 51
2011-01-14 08:37:11 51°23.661 2°52.402 6 301 8.3 101050 51
2011-01-14 08:37:17 51°23.684 2°52.405 9.5 260 8.3 101040 52
2011-01-14 08:37:22 51°23.703 2°52.405 6 304 8.3 101040 52
2011-01-14 08:37:27 51°23.722 2°52.407 4.5 260 8.3 101050 52
2011-01-14 08:37:32 51°23.741 2°52.412 10.4 302 8.3 101050 52
2011-01-14 08:37:37 51°23.76 2°52.409 5.2 262 8.3 101040 53
2011-01-14 08:37:42 51°23.779 2°52.41 9.1 304 8.3 101040 53
2011-01-14 08:37:47 51°23.798 2°52.412 6.9 265 8.3 101040 51
2011-01-14 08:37:52 51°23.817 2°52.415 10.3 305 8.3 101040 51
2011-01-14 08:37:57 51°23.836 2°52.413 10.8 262 8.3 101030 52
2011-01-14 08:38:02 51°23.854 2°52.412 9.4 306 8.3 101030 52
2011-01-14 08:38:07 51°23.873 2°52.41 7.8 254 8.3 101050 53
2011-01-14 08:38:12 51°23.892 2°52.412 9.4 305 8.3 101050 53
2011-01-14 08:38:17 51°23.911 2°52.411 6.9 260 8.3 101040 51
2011-01-14 08:38:23 51°23.934 2°52.411 9.9 307 8.3 101040 51
2011-01-14 08:38:27 51°23.949 2°52.411 5.6 263 8.3 101040 51
2011-01-14 08:38:32 51°23.968 2°52.411 7.2 308 8.3 101040 51
2011-01-14 08:38:37 51°23.987 2°52.413 11.2 257 8.3 101040 52
2011-01-14 08:38:43 51°24.009 2°52.406 11.2 280 8.3 101040 52
2011-01-14 08:38:47 51°24.024 2°52.405 9.1 257 8.3 101040 53
2011-01-14 08:38:52 51°24.042 2°52.404 6.9 309 8.3 101040 53
2011-01-14 08:38:57 51°24.061 2°52.401 5.8 262 8.3 101050 53
2011-01-14 08:39:02 51°24.08 2°52.404 9.3 307 8.3 101050 53
2011-01-14 08:39:07 51°24.098 2°52.399 7.1 259 8.2 101050 52
2011-01-14 08:39:12 51°24.117 2°52.403 7.2 302 8.2 101050 52
2011-01-14 08:39:17 51°24.136 2°52.399 7 260 8.3 101040 52
2011-01-14 08:39:22 51°24.155 2°52.406 9.7 304 8.3 101040 52
2011-01-14 08:39:27 51°24.174 2°52.401 7.1 261 8.3 101050 54
2011-01-14 08:39:32 51°24.192 2°52.401 8.8 306 8.3 101050 54
2011-01-14 08:39:37 51°24.211 2°52.4 7.8 258 8.3 101040 53
2011-01-14 08:39:42 51°24.229 2°52.402 5 310 8.3 101040 53
2011-01-14 08:39:47 51°24.248 2°52.403 5.7 263 8.3 101040 52
2011-01-14 08:39:52 51°24.267 2°52.405 7.6 305 8.3 101040 52
2011-01-14 08:39:57 51°24.285 2°52.408 7.3 264 8.3 101040 53
2011-01-14 08:40:02 51°24.304 2°52.406 5.9 305 8.3 101040 53
2011-01-14 08:40:07 51°24.323 2°52.409 7.9 263 8.3 101050 52
2011-01-14 08:40:12 51°24.342 2°52.409 5.2 307 8.3 101050 52
2011-01-14 08:40:17 51°24.36 2°52.413 6.5 261 8.3 101050 53
2011-01-14 08:40:22 51°24.379 2°52.414 6.2 307 8.3 101050 53
2011-01-14 08:40:27 51°24.398 2°52.417 5.8 266 8.3 101050 51
2011-01-14 08:40:32 51°24.417 2°52.421 8.8 309 8.3 101050 51
2011-01-14 08:40:37 51°24.435 2°52.419 4.3 267 8.3 101050 52
2011-01-14 08:40:42 51°24.454 2°52.424 9.7 282 8.3 101050 52
2011-01-14 08:40:47 51°24.473 2°52.424 7.9 260 8.3 101060 54
2011-01-14 08:40:51 51°24.488 2°52.423 5 302 8.3 101060 54
2011-01-14 08:40:57 51°24.511 2°52.427 10.5 261 8.3 101030 54
2011-01-14 08:41:02 51°24.53 2°52.429 7.3 310 8.3 101030 54
2011-01-14 08:41:07 51°24.549 2°52.429 9.3 261 8.3 101050 52
2011-01-14 08:41:12 51°24.567 2°52.431 5.6 304 8.3 101050 52
2011-01-14 08:41:17 51°24.586 2°52.437 11.5 255 8.3 101050 52
2011-01-14 08:41:22 51°24.605 2°52.433 8.5 307 8.3 101050 52
2011-01-14 08:41:27 51°24.623 2°52.431 8.3 258 8.3 101040 54
2011-01-14 08:41:32 51°24.642 2°52.433 10.5 307 8.3 101040 54
2011-01-14 08:41:37 51°24.661 2°52.433 8 260 8.3 101040 52
2011-01-14 08:41:42 51°24.681 2°52.434 9.3 306 8.3 101040 52
2011-01-14 08:41:47 51°24.699 2°52.431 6.9 261 8.3 101040 53
2011-01-14 08:41:52 51°24.719 2°52.433 8 304 8.3 101040 53
2011-01-14 08:41:57 51°24.738 2°52.433 6.8 265 8.3 101040 53
2011-01-14 08:42:02 51°24.757 2°52.433 5.1 303 8.3 101040 53
2011-01-14 08:42:07 51°24.776 2°52.438 8.8 261 8.3 101030 52
2011-01-14 08:42:12 51°24.795 2°52.437 6.6 303 8.3 101030 52
2011-01-14 08:42:17 51°24.814 2°52.44 5.5 266 8.3 101050 54
2011-01-14 08:42:22 51°24.832 2°52.442 7.3 305 8.3 101050 54
2011-01-14 08:42:27 51°24.851 2°52.447 6 261 8.3 101050 53
2011-01-14 08:42:32 51°24.871 2°52.446 5.1 302 8.3 101050 53
2011-01-14 08:42:37 51°24.89 2°52.449 5.2 262 8.3 101050 52
2011-01-14 08:42:42 51°24.908 2°52.452 5.9 284 8.3 101050 52
2011-01-14 08:42:47 51°24.927 2°52.456 6.8 261 8.3 101050 53
2011-01-14 08:42:52 51°24.946 2°52.454 5 303 8.3 101050 53
2011-01-14 08:42:57 51°24.965 2°52.458 5.2 261 8.3 101050 52
2011-01-14 08:43:02 51°24.984 2°52.46 6.7 305 8.3 101050 52
2011-01-14 08:43:07 51°25.003 2°52.461 8.9 265 8.3 101050 52
2011-01-14 08:43:12 51°25.022 2°52.464 6.7 305 8.3 101050 52
2011-01-14 08:43:17 51°25.041 2°52.465 6.9 260 8.3 101050 52
2011-01-14 08:43:22 51°25.06 2°52.467 6.1 304 8.3 101050 52
2011-01-14 08:43:27 51°25.078 2°52.47 3.8 259 8.3 101040 52
2011-01-14 08:43:32 51°25.097 2°52.471 5.9 307 8.3 101040 52
2011-01-14 08:43:37 51°25.116 2°52.473 6.1 265 8.3 101050 54
2011-01-14 08:43:42 51°25.135 2°52.473 4.2 308 8.3 101050 54
2011-01-14 08:43:47 51°25.154 2°52.477 5.2 264 8.3 101050 54
2011-01-14 08:43:52 51°25.173 2°52.48 5.7 303 8.3 101050 54
2011-01-14 08:43:57 51°25.191 2°52.48 4.7 261 8.3 101040 52
2011-01-14 08:44:02 51°25.211 2°52.486 7.2 310 8.3 101040 52
2011-01-14 08:44:07 51°25.23 2°52.485 5.8 261 8.3 101050 52
2011-01-14 08:44:12 51°25.249 2°52.488 6.7 305 8.3 101050 52
2011-01-14 08:44:17 51°25.268 2°52.49 8.1 264 8.3 101040 52
2011-01-14 08:44:22 51°25.287 2°52.492 7.6 306 8.3 101040 52
2011-01-14 08:44:27 51°25.306 2°52.497 6.5 265 8.3 101050 52
2011-01-14 08:44:32 51°25.325 2°52.496 5.4 307 8.3 101050 52
2011-01-14 08:44:37 51°25.344 2°52.5 9.3 261 8.4 101050 52
2011-01-14 08:44:42 51°25.364 2°52.499 7.4 281 8.4 101050 52
2011-01-14 08:44:47 51°25.382 2°52.498 8.5 259 8.3 101040 52
2011-01-14 08:44:51 51°25.398 2°52.502 7.8 310 8.3 101040 52
2011-01-14 08:44:57 51°25.42 2°52.496 6.3 261 8.4 101060 53
2011-01-14 08:45:02 51°25.438 2°52.5 11.7 308 8.4 101060 53
2011-01-14 08:45:07 51°25.457 2°52.494 5.5 262 8.4 101050 54
2011-01-14 08:45:12 51°25.476 2°52.498 8 301 8.4 101050 54
2011-01-14 08:45:17 51°25.494 2°52.496 6.4 263 8.4 101040 52
2011-01-14 08:45:22 51°25.513 2°52.499 8 306 8.4 101040 52
2011-01-14 08:45:27 51°25.533 2°52.501 6.4 264 8.4 101050 52
2011-01-14 08:45:33 51°25.555 2°52.505 4.1 304 8.4 101050 52
2011-01-14 08:45:38 51°25.574 2°52.508 8.2 261 8.4 101050 54
2011-01-14 08:45:42 51°25.589 2°52.505 6.1 301 8.4 101050 54
2011-01-14 08:45:47 51°25.608 2°52.511 12.4 260 8.3 101050 51
2011-01-14 08:45:52 51°25.626 2°52.507 8.1 304 8.3 101050 51
2011-01-14 08:45:57 51°25.645 2°52.511 8 264 8.3 101060 52
2011-01-14 08:46:02 51°25.664 2°52.509 8.1 303 8.3 101060 52
2011-01-14 08:46:07 51°25.683 2°52.514 10.6 258 8.3 101050 53
2011-01-14 08:46:12 51°25.703 2°52.509 5.6 303 8.3 101050 53
2011-01-14 08:46:17 51°25.721 2°52.514 6.3 263 8.3 101040 54
2011-01-14 08:46:22 51°25.74 2°52.514 5.6 304 8.3 101040 54
2011-01-14 08:46:27 51°25.759 2°52.516 8.6 262 8.3 101040 52
2011-01-14 08:46:32 51°25.778 2°52.52 8.7 301 8.3 101040 52
2011-01-14 08:46:37 51°25.797 2°52.52 6.3 260 8.3 101040 53
2011-01-14 08:46:42 51°25.816 2°52.525 9.2 286 8.3 101040 53
2011-01-14 08:46:47 51°25.835 2°52.522 6.3 261 8.3 101040 53
2011-01-14 08:46:52 51°25.854 2°52.522 9.4 302 8.3 101040 53
2011-01-14 08:46:57 51°25.873 2°52.521 8.7 261 8.3 101040 53
2011-01-14 08:47:02 51°25.891 2°52.52 7.3 303 8.3 101040 53
2011-01-14 08:47:07 51°25.91 2°52.523 13.2 259 8.3 101040 53
2011-01-14 08:47:11 51°25.925 2°52.521 9 309 8.3 101040 53
2011-01-14 08:47:17 51°25.947 2°52.521 9.9 262 8.3 101040 52
2011-01-14 08:47:22 51°25.966 2°52.52 9.5 307 8.3 101040 52
2011-01-14 08:47:27 51°25.986 2°52.522 7.6 264 8.3 101040 53
2011-01-14 08:47:32 51°26.004 2°52.521 6.6 306 8.3 101040 53
2011-01-14 08:47:37 51°26.023 2°52.523 7.5 260 8.3 101040 53
2011-01-14 08:47:42 51°26.042 2°52.524 9.7 286 8.3 101040 53
2011-01-14 08:47:47 51°26.061 2°52.526 8 264 8.3 101040 54
2011-01-14 08:47:52 51°26.08 2°52.525 6.9 310 8.3 101040 54
2011-01-14 08:47:57 51°26.1 2°52.529 9.9 261 8.3 101040 52
2011-01-14 08:48:02 51°26.118 2°52.525 5.1 310 8.3 101040 52
2011-01-14 08:48:07 51°26.137 2°52.527 7 257 8.3 101040 52
2011-01-14 08:48:12 51°26.157 2°52.527 8.9 309 8.3 101040 52
2011-01-14 08:48:17 51°26.175 2°52.524 7.8 263 8.3 101050 52
2011-01-14 08:48:22 51°26.194 2°52.527 9.1 310 8.3 101050 52
2011-01-14 08:48:27 51°26.213 2°52.523 6.6 260 8.3 101030 52
2011-01-14 08:48:32 51°26.232 2°52.525 7.1 308 8.3 101030 52
2011-01-14 08:48:37 51°26.25 2°52.525 7.6 261 8.3 101030 52
2011-01-14 08:48:42 51°26.269 2°52.526 11.8 307 8.3 101030 52
2011-01-14 08:48:47 51°26.288 2°52.525 9.8 259 8.3 101040 52
2011-01-14 08:48:52 51°26.307 2°52.522 10.3 284 8.3 101040 52
2011-01-14 08:48:57 51°26.326 2°52.525 9.4 259 8.3 101030 53
2011-01-14 08:49:02 51°26.344 2°52.519 7.8 309 8.3 101030 53
2011-01-14 08:49:07 51°26.363 2°52.52 8.3 266 8.3 101020 52
2011-01-14 08:49:12 51°26.381 2°52.515 7.5 305 8.3 101020 52
2011-01-14 08:49:17 51°26.4 2°52.517 6.3 261 8.3 101020 53
2011-01-14 08:49:22 51°26.418 2°52.513 7.9 308 8.3 101020 53
2011-01-14 08:49:27 51°26.437 2°52.516 9.1 260 8.3 101020 53
2011-01-14 08:49:32 51°26.455 2°52.511 6.9 309 8.3 101020 53
2011-01-14 08:49:37 51°26.475 2°52.515 12.9 253 8.3 101030 54
2011-01-14 08:49:42 51°26.493 2°52.509 9.1 278 8.3 101030 54
2011-01-14 08:49:47 51°26.511 2°52.507 12 261 8.3 101030 52
2011-01-14 08:49:52 51°26.53 2°52.505 8.2 309 8.3 101030 52
2011-01-14 08:49:57 51°26.549 2°52.504 11.2 260 8.4 101040 53
2011-01-14 08:50:02 51°26.567 2°52.499 7.1 307 8.4 101040 53
2011-01-14 08:50:07 51°26.586 2°52.5 6.1 262 8.4 101020 52
2011-01-14 08:50:12 51°26.605 2°52.498 8.1 306 8.4 101020 52
2011-01-14 08:50:17 51°26.624 2°52.499 9.4 262 8.3 101020 53
2011-01-14 08:50:22 51°26.643 2°52.498 5.9 306 8.3 101020 53
2011-01-14 08:50:27 51°26.662 2°52.5 7.9 263 8.3 101040 52
2011-01-14 08:50:32 51°26.681 2°52.501 6.6 305 8.3 101040 52
2011-01-14 08:50:37 51°26.7 2°52.499 6.3 265 8.4 101030 53
2011-01-14 08:50:42 51°26.719 2°52.506 8.5 304 8.4 101030 53
2011-01-14 08:50:47 51°26.737 2°52.502 6 263 8.4 101030 54
2011-01-14 08:50:52 51°26.757 2°52.505 7.4 306 8.4 101030 54
2011-01-14 08:50:57 51°26.775 2°52.501 9.4 262 8.4 101030 52
2011-01-14 08:51:02 51°26.794 2°52.501 11.3 308 8.4 101030 52
2011-01-14 08:51:07 51°26.812 2°52.499 4.2 263 8.4 101020 51
2011-01-14 08:51:12 51°26.831 2°52.502 7.4 302 8.4 101020 51
2011-01-14 08:51:17 51°26.849 2°52.5 7 262 8.4 101020 53
2011-01-14 08:51:22 51°26.868 2°52.501 7 308 8.4 101020 53
2011-01-14 08:51:27 51°26.887 2°52.502 8.5 267 8.4 101040 54
2011-01-14 08:51:32 51°26.906 2°52.503 6.1 309 8.4 101040 54
2011-01-14 08:51:37 51°26.925 2°52.503 6.6 262 8.4 101030 54
2011-01-14 08:51:42 51°26.944 2°52.505 7.9 284 8.4 101030 54
2011-01-14 08:51:47 51°26.963 2°52.506 7.2 266 8.4 101030 52
2011-01-14 08:51:52 51°26.982 2°52.508 8.3 304 8.4 101030 52
2011-01-14 08:51:57 51°27.001 2°52.506 7.4 262 8.4 101030 53
2011-01-14 08:52:02 51°27.02 2°52.508 7.9 303 8.4 101030 53
2011-01-14 08:52:07 51°27.039 2°52.506 4.6 265 8.4 101050 52
2011-01-14 08:52:12 51°27.059 2°52.507 5.6 302 8.4 101050 52
2011-01-14 08:52:17 51°27.078 2°52.508 6.4 269 8.4 101040 52
2011-01-14 08:52:22 51°27.096 2°52.513 6.2 304 8.4 101040 52
2011-01-14 08:52:27 51°27.115 2°52.518 6.5 266 8.4 101030 54
2011-01-14 08:52:32 51°27.134 2°52.521 6.4 58 8.4 101030 54
2011-01-14 08:52:37 51°27.153 2°52.53 5.5 263 8.4 101030 52
2011-01-14 08:52:42 51°27.172 2°52.533 6.5 302 8.4 101030 52
2011-01-14 08:52:47 51°27.191 2°52.536 5.7 22 8.4 101030 54
2011-01-14 08:52:52 51°27.209 2°52.543 7.4 52 8.4 101030 54
2011-01-14 08:52:57 51°27.228 2°52.547 6.4 19 8.4 101050 52
2011-01-14 08:53:02 51°27.247 2°52.555 7.5 307 8.4 101050 52
2011-01-14 08:53:07 51°27.266 2°52.56 8 30 8.4 101020 54
2011-01-14 08:53:12 51°27.285 2°52.566 5.1 53 8.4 101020 54
2011-01-14 08:53:17 51°27.303 2°52.574 6.3 19 8.4 101030 52
2011-01-14 08:53:22 51°27.322 2°52.583 5.6 309 8.4 101030 52
2011-01-14 08:53:27 51°27.342 2°52.586 7.9 16 8.4 101030 53
2011-01-14 08:53:31 51°27.356 2°52.592 10 308 8.4 101030 53
2011-01-14 08:53:37 51°27.379 2°52.596 7.7 22 8.4 101030 53
2011-01-14 08:53:42 51°27.398 2°52.605 9.5 278 8.4 101030 53
2011-01-14 08:53:47 51°27.416 2°52.608 8.8 24 8.4 101030 52
2011-01-14 08:53:52 51°27.435 2°52.614 8.7 305 8.4 101030 52
2011-01-14 08:53:57 51°27.454 2°52.621 7.5 22 8.4 101030 52
2011-01-14 08:54:02 51°27.473 2°52.629 9 56 8.4 101030 52
2011-01-14 08:54:07 51°27.491 2°52.637 8.4 24 8.4 101030 54
2011-01-14 08:54:11 51°27.505 2°52.644 6.9 56 8.4 101030 54
2011-01-14 08:54:17 51°27.529 2°52.657 8.2 266 8.4 101030 53
2011-01-14 08:54:22 51°27.547 2°52.653 6.7 303 8.4 101030 53
2011-01-14 08:54:27 51°27.566 2°52.662 8.9 270 8.4 101030 53
2011-01-14 08:54:32 51°27.586 2°52.663 6.7 58 8.4 101030 53
2011-01-14 08:54:37 51°27.605 2°52.673 8.6 269 8.4 101030 54
2011-01-14 08:54:42 51°27.624 2°52.673 8.5 307 8.4 101030 54
2011-01-14 08:54:47 51°27.643 2°52.682 11.7 269 8.4 101020 52
2011-01-14 08:54:51 51°27.658 2°52.682 6.6 310 8.4 101020 52
2011-01-14 08:54:57 51°27.681 2°52.688 9 267 8.4 101020 54
2011-01-14 08:55:02 51°27.701 2°52.694 12.2 306 8.4 101020 54
2011-01-14 08:55:07 51°27.72 2°52.693 5.6 265 8.4 101030 51
2011-01-14 08:55:12 51°27.739 2°52.699 7.5 306 8.4 101030 51
2011-01-14 08:55:17 51°27.758 2°52.698 9.8 28 8.4 101030 54
2011-01-14 08:55:22 51°27.776 2°52.701 6.7 306 8.4 101030 54
2011-01-14 08:55:27 51°27.795 2°52.705 6.6 268 8.5 101010 54
2011-01-14 08:55:32 51°27.815 2°52.71 9.9 300 8.5 101010 54
2011-01-14 08:55:37 51°27.834 2°52.712 6.3 32 8.4 101020 54
2011-01-14 08:55:42 51°27.852 2°52.721 9 289 8.4 101020 54
2011-01-14 08:55:47 51°27.872 2°52.725 7 263 8.4 101030 52
2011-01-14 08:55:52 51°27.891 2°52.726 10.4 74 8.4 101030 52
2011-01-14 08:55:57 51°27.909 2°52.73 7.5 266 8.4 101010 53
2011-01-14 08:56:02 51°27.929 2°52.735 11.4 305 8.4 101010 53
2011-01-14 08:56:07 51°27.948 2°52.732 5.2 265 8.4 101020 52
2011-01-14 08:56:12 51°27.966 2°52.734 7.9 311 8.4 101020 52
2011-01-14 08:56:17 51°27.986 2°52.737 8.6 263 8.4 101000 52
2011-01-14 08:56:22 51°28.005 2°52.735 8.7 58 8.4 101000 52
2011-01-14 08:56:27 51°28.023 2°52.74 7.8 264 8.4 100990 52
2011-01-14 08:56:32 51°28.042 2°52.743 7.4 306 8.4 100990 52
2011-01-14 08:56:37 51°28.061 2°52.741 7.8 268 8.4 101020 54
2011-01-14 08:56:42 51°28.08 2°52.743 8.9 304 8.4 101020 54
2011-01-14 08:56:47 51°28.099 2°52.742 5.2 265 8.4 101020 54
2011-01-14 08:56:52 51°28.118 2°52.748 13.8 306 8.4 101020 54
2011-01-14 08:56:57 51°28.136 2°52.745 5.3 266 8.4 101000 53
2011-01-14 08:57:02 51°28.155 2°52.748 7 308 8.4 101000 53
2011-01-14 08:57:07 51°28.174 2°52.749 10.1 270 8.4 101020 52
2011-01-14 08:57:12 51°28.193 2°52.75 7.3 303 8.4 101020 52
2011-01-14 08:57:17 51°28.212 2°52.753 8.5 267 8.4 101010 52
2011-01-14 08:57:22 51°28.231 2°52.755 7.6 307 8.4 101010 52
2011-01-14 08:57:27 51°28.25 2°52.755 11 270 8.4 101000 53
2011-01-14 08:57:32 51°28.269 2°52.759 8 307 8.4 101000 53
2011-01-14 08:57:37 51°28.288 2°52.757 6.1 267 8.4 101010 52
2011-01-14 08:57:42 51°28.306 2°52.759 10.7 281 8.4 101010 52
2011-01-14 08:57:47 51°28.325 2°52.76 8.3 268 8.4 101010 53
2011-01-14 08:57:52 51°28.343 2°52.76 7.1 308 8.4 101010 53
2011-01-14 08:57:57 51°28.363 2°52.766 7.3 266 8.4 101020 54
2011-01-14 08:58:02 51°28.381 2°52.761 7.5 305 8.4 101020 54
2011-01-14 08:58:07 51°28.399 2°52.767 8.4 266 8.4 101010 52
2011-01-14 08:58:12 51°28.418 2°52.763 8.8 61 8.4 101010 52
2011-01-14 08:58:17 51°28.437 2°52.77 7.4 265 8.4 101020 54
2011-01-14 08:58:22 51°28.455 2°52.768 7.2 304 8.4 101020 54
2011-01-14 08:58:27 51°28.475 2°52.773 11.1 264 8.4 101010 52
2011-01-14 08:58:32 51°28.493 2°52.764 6.6 302 8.4 101010 52
2011-01-14 08:58:37 51°28.511 2°52.768 10.2 264 8.4 101020 53
2011-01-14 08:58:42 51°28.53 2°52.766 8.8 304 8.4 101020 53
2011-01-14 08:58:47 51°28.549 2°52.767 9.3 269 8.4 101010 52
2011-01-14 08:58:52 51°28.568 2°52.77 8.3 308 8.4 101010 52
2011-01-14 08:58:57 51°28.586 2°52.767 5.5 269 8.4 101010 54
2011-01-14 08:59:02 51°28.605 2°52.77 8 306 8.4 101010 54
2011-01-14 08:59:07 51°28.623 2°52.773 9.9 270 8.4 101000 52
2011-01-14 08:59:12 51°28.642 2°52.775 8.4 304 8.4 101000 52
2011-01-14 08:59:17 51°28.66 2°52.777 8.1 267 8.4 100990 52
2011-01-14 08:59:22 51°28.679 2°52.778 7.4 312 8.4 100990 52
2011-01-14 08:59:27 51°28.697 2°52.783 10.6 270 8.4 101010 54
2011-01-14 08:59:32 51°28.716 2°52.787 9.6 54 8.4 101010 54
2011-01-14 08:59:37 51°28.734 2°52.789 7.4 268 8.4 101010 53
2011-01-14 08:59:42 51°28.753 2°52.792 6.9 281 8.4 101010 53
2011-01-14 08:59:47 51°28.772 2°52.793 8.4 266 8.4 101010 54
2011-01-14 08:59:52 51°28.79 2°52.797 9.7 308 8.4 101010 54
2011-01-14 08:59:57 51°28.809 2°52.795 6.1 262 8.4 101010 54
2011-01-14 09:00:02 51°28.828 2°52.794 5.9 302 8.4 101010 54
2011-01-14 09:00:07 51°28.847 2°52.796 7.6 265 8.5 101010 55
2011-01-14 09:00:12 51°28.865 2°52.792 8.1 311 8.5 101010 55
2011-01-14 09:00:17 51°28.884 2°52.79 12.9 260 8.4 101000 53
2011-01-14 09:00:22 51°28.903 2°52.787 9 307 8.4 101000 53
2011-01-14 09:00:27 51°28.921 2°52.784 10.2 259 8.4 101000 53
2011-01-14 09:00:32 51°28.94 2°52.781 14.2 305 8.4 101000 53
2011-01-14 09:00:37 51°28.959 2°52.777 13.7 264 8.4 101000 54
2011-01-14 09:00:42 51°28.977 2°52.771 9.8 306 8.4 101000 54
2011-01-14 09:00:47 51°28.996 2°52.768 12.7 262 8.4 101000 53
2011-01-14 09:00:52 51°29.014 2°52.761 15.7 304 8.4 101000 53
2011-01-14 09:00:57 51°29.033 2°52.755 12.7 255 8.4 100990 52
2011-01-14 09:01:02 51°29.051 2°52.75 14.1 309 8.4 100990 52
2011-01-14 09:01:07 51°29.07 2°52.746 14.9 259 8.5 101000 53
2011-01-14 09:01:12 51°29.089 2°52.74 13.2 306 8.5 101000 53
2011-01-14 09:01:17 51°29.108 2°52.737 15 260 8.5 101000 54
2011-01-14 09:01:22 51°29.125 2°52.729 18.5 306 8.5 101000 54
2011-01-14 09:01:27 51°29.143 2°52.721 13.8 261 8.5 100990 53
2011-01-14 09:01:32 51°29.161 2°52.719 13.3 305 8.5 100990 53
2011-01-14 09:01:37 51°29.18 2°52.712 13 262 8.4 101000 52
2011-01-14 09:01:42 51°29.197 2°52.706 10.3 277 8.4 101000 52
2011-01-14 09:01:47 51°29.216 2°52.703 13.3 257 8.5 101000 53
2011-01-14 09:01:52 51°29.233 2°52.694 15.9 307 8.5 101000 53
2011-01-14 09:01:57 51°29.251 2°52.687 11.6 256 8.4 101010 53
2011-01-14 09:02:02 51°29.269 2°52.681 14.3 305 8.4 101010 53
2011-01-14 09:02:07 51°29.286 2°52.672 12.4 258 8.4 101010 53
2011-01-14 09:02:11 51°29.302 2°52.671 19.7 305 8.4 101010 53
2011-01-14 09:02:17 51°29.322 2°52.66 13.8 256 8.4 100980 52
2011-01-14 09:02:22 51°29.341 2°52.656 12.6 304 8.4 100980 52
2011-01-14 09:02:27 51°29.359 2°52.648 13.3 256 8.4 101000 52
2011-01-14 09:02:32 51°29.377 2°52.643 11.4 304 8.4 101000 52
2011-01-14 09:02:37 51°29.396 2°52.637 15.1 253 8.4 101000 52
2011-01-14 09:02:42 51°29.415 2°52.632 15 308 8.4 101000 52
2011-01-14 09:02:47 51°29.433 2°52.624 13.7 257 8.4 100990 53
2011-01-14 09:02:51 51°29.448 2°52.622 12.3 305 8.4 100990 53
2011-01-14 09:02:57 51°29.47 2°52.615 11.7 257 8.4 101000 52
2011-01-14 09:03:02 51°29.489 2°52.611 12.2 306 8.4 101000 52
2011-01-14 09:03:07 51°29.507 2°52.605 9 261 8.4 100990 53
2011-01-14 09:03:12 51°29.526 2°52.602 10 309 8.4 100990 53
2011-01-14 09:03:17 51°29.544 2°52.599 12.9 255 8.4 100990 52
2011-01-14 09:03:22 51°29.562 2°52.592 14.5 308 8.4 100990 52
2011-01-14 09:03:27 51°29.581 2°52.59 14.7 255 8.4 101000 53
2011-01-14 09:03:32 51°29.6 2°52.582 14 309 8.4 101000 53
2011-01-14 09:03:37 51°29.618 2°52.577 13.6 259 8.4 101010 53
2011-01-14 09:03:42 51°29.637 2°52.572 13.8 286 8.4 101010 53
2011-01-14 09:03:47 51°29.655 2°52.566 16.4 258 8.4 100990 53
2011-01-14 09:03:52 51°29.674 2°52.563 13.6 307 8.4 100990 53
2011-01-14 09:03:57 51°29.692 2°52.557 16.5 258 8.4 101000 52
2011-01-14 09:04:02 51°29.71 2°52.551 12.4 309 8.4 101000 52
2011-01-14 09:04:07 51°29.729 2°52.547 14.7 255 8.4 101000 53
2011-01-14 09:04:12 51°29.747 2°52.539 13.4 310 8.4 101000 53
2011-01-14 09:04:17 51°29.766 2°52.536 15.6 253 8.4 100990 53
2011-01-14 09:04:22 51°29.783 2°52.525 13.9 308 8.4 100990 53
2011-01-14 09:04:27 51°29.802 2°52.521 16.1 252 8.4 100990 52
2011-01-14 09:04:32 51°29.819 2°52.51 12 308 8.4 100990 52
2011-01-14 09:04:37 51°29.837 2°52.508 15.2 259 8.4 100990 53
2011-01-14 09:04:42 51°29.855 2°52.502 12.9 308 8.4 100990 53
2011-01-14 09:04:47 51°29.873 2°52.494 16.2 257 8.4 100980 52
2011-01-14 09:04:52 51°29.892 2°52.493 16.4 304 8.4 100980 52
2011-01-14 09:04:57 51°29.909 2°52.484 14.2 260 8.4 100980 53
2011-01-14 09:05:02 51°29.927 2°52.479 14.4 307 8.4 100980 53
2011-01-14 09:05:07 51°29.946 2°52.474 18.5 256 8.4 100990 53
2011-01-14 09:05:12 51°29.964 2°52.466 13.9 305 8.4 100990 53
2011-01-14 09:05:17 51°29.983 2°52.465 14.7 251 8.5 100990 54
2011-01-14 09:05:22 51°30 2°52.454 12.8 309 8.5 100990 54
2011-01-14 09:05:27 51°30.019 2°52.449 16.5 258 8.5 100990 53
2011-01-14 09:05:32 51°30.036 2°52.439 13.1 304 8.5 100990 53
2011-01-14 09:05:37 51°30.055 2°52.435 13.2 260 8.5 100980 53
2011-01-14 09:05:42 51°30.072 2°52.425 12.4 279 8.5 100980 53
2011-01-14 09:05:47 51°30.091 2°52.422 16.6 256 8.5 100980 53
2011-01-14 09:05:52 51°30.11 2°52.414 14.2 302 8.5 100980 53
2011-01-14 09:05:57 51°30.128 2°52.409 12.4 259 8.5 101000 53
2011-01-14 09:06:02 51°30.147 2°52.405 15 301 8.5 101000 53
2011-01-14 09:06:07 51°30.165 2°52.397 14.8 258 8.5 100980 53
2011-01-14 09:06:12 51°30.183 2°52.392 12.8 308 8.5 100980 53
2011-01-14 09:06:17 51°30.202 2°52.386 12.8 257 8.5 101000 52
2011-01-14 09:06:22 51°30.221 2°52.382 13.6 306 8.5 101000 52
2011-01-14 09:06:27 51°30.238 2°52.373 13.3 253 8.5 100990 53
2011-01-14 09:06:32 51°30.256 2°52.365 13.1 306 8.5 100990 53
2011-01-14 09:06:37 51°30.274 2°52.359 17.6 258 8.5 100980 53
2011-01-14 09:06:42 51°30.293 2°52.353 12.4 303 8.5 100980 53